When you browse on this site, cookies collect data to enhance your experience and personalize the content and advertising you see.
Visit our Privacy Policy to learn more. By continuing to use the site, you agree to this use of cookies and data.
  • In United Kingdom
  • List of Countries
  • For 7 days
  • Water Temperature
  • Weather Map
  • Weather Widgets
  • user-avatar
    Login

    Hourly Weather Mohacs

    Today, 24 September, Tuesday

    Time Temperature Precipitation Wind Pressure Humidity
    00:00 +16°C° 0.1 mm 3 mps 751 mmHg 68%
    01:00 +15°C° 0 mm 4 mps 751 mmHg 66%
    02:00 +15°C° 0.1 mm 4 mps 751 mmHg 66%
    03:00 +15°C° 0.1 mm 4 mps 750 mmHg 65%
    04:00 +15°C° 0.1 mm 4 mps 750 mmHg 65%
    05:00 +14°C° 0.4 mm 4 mps 750 mmHg 67%
    06:00 +14°C° 0.4 mm 3 mps 751 mmHg 68%
    07:00 +14°C° 0.4 mm 3 mps 751 mmHg 70%
    08:00 +14°C° 0.8 mm 3 mps 751 mmHg 71%
    09:00 +14°C° 0.8 mm 3 mps 752 mmHg 72%
    10:00 +14°C° 0.8 mm 3 mps 752 mmHg 72%
    11:00 +16°C° 0.1 mm 2 mps 752 mmHg 70%
    12:00 +17°C° 0.1 mm 2 mps 752 mmHg 67%
    13:00 +18°C° 0.1 mm 1 mps 752 mmHg 65%
    14:00 +18°C° 0 mm 1 mps 751 mmHg 66%
    15:00 +18°C° 0 mm 1 mps 751 mmHg 66%
    16:00 +18°C° 0 mm 1 mps 751 mmHg 67%
    17:00 +18°C° 0 mm 1 mps 751 mmHg 71%
    18:00 +16°C° 0 mm 1 mps 751 mmHg 75%
    19:00 +15°C° 0 mm 1 mps 751 mmHg 78%
    20:00 +15°C° 0 mm 1 mps 751 mmHg 79%
    21:00 +15°C° 0 mm 1 mps 751 mmHg 80%
    22:00 +15°C° 0 mm 1 mps 751 mmHg 80%
    23:00 +15°C° 0 mm 1 mps 751 mmHg 82%

    Tomorrow, 25 September, Wednesday

    Time Temperature Precipitation Wind Pressure Humidity
    00:00 +15°C° 0 mm 1 mps 751 mmHg 83%
    01:00 +15°C° 0 mm 1 mps 751 mmHg 85%
    02:00 +15°C° 0 mm 1 mps 751 mmHg 86%
    03:00 +15°C° 0 mm 1 mps 751 mmHg 86%
    04:00 +15°C° 0 mm 1 mps 751 mmHg 87%
    05:00 +15°C° 0 mm 1 mps 751 mmHg 86%
    06:00 +15°C° 0 mm 1 mps 751 mmHg 86%
    07:00 +15°C° 0 mm 1 mps 751 mmHg 85%
    08:00 +18°C° 0 mm 1 mps 751 mmHg 78%
    09:00 +18°C° 0 mm 2 mps 751 mmHg 72%
    10:00 +20°C° 0 mm 2 mps 751 mmHg 65%
    11:00 +21°C° 0 mm 2 mps 750 mmHg 61%
    12:00 +23°C° 0 mm 1 mps 750 mmHg 56%
    13:00 +24°C° 0 mm 1 mps 750 mmHg 52%
    14:00 +24°C° 0 mm 1 mps 749 mmHg 52%
    15:00 +24°C° 0 mm 1 mps 749 mmHg 52%
    16:00 +24°C° 0 mm 1 mps 749 mmHg 52%
    17:00 +21°C° 0 mm 2 mps 749 mmHg 58%
    18:00 +20°C° 0 mm 2 mps 749 mmHg 64%
    19:00 +18°C° 0 mm 2 mps 749 mmHg 69%
    20:00 +19°C° 0 mm 1 mps 750 mmHg 72%
    21:00 +18°C° 0 mm 1 mps 750 mmHg 75%
    22:00 +18°C° 0 mm 1 mps 750 mmHg 77%
    23:00 +18°C° 0.1 mm 1 mps 750 mmHg 78%

    Day after tomorrow, 26 September, Thursday

    Time Temperature Precipitation Wind Pressure Humidity
    00:00 +18°C° 0.1 mm 1 mps 750 mmHg 79%
    01:00 +17°C° 0.1 mm 2 mps 750 mmHg 80%
    02:00 +17°C° 0 mm 2 mps 750 mmHg 78%
    03:00 +16°C° 0 mm 3 mps 750 mmHg 77%
    04:00 +16°C° 0 mm 3 mps 751 mmHg 76%
    05:00 +16°C° 1.4 mm 3 mps 751 mmHg 81%
    06:00 +14°C° 1.4 mm 3 mps 751 mmHg 86%
    07:00 +14°C° 1.4 mm 3 mps 752 mmHg 92%
    08:00 +14°C° 1.3 mm 4 mps 752 mmHg 91%
    09:00 +14°C° 1.3 mm 4 mps 752 mmHg 90%
    10:00 +14°C° 1.3 mm 5 mps 753 mmHg 89%
    11:00 +15°C° 0 mm 4 mps 753 mmHg 83%
    12:00 +17°C° 0 mm 4 mps 753 mmHg 77%
    13:00 +18°C° 0 mm 3 mps 753 mmHg 71%
    14:00 +19°C° 0 mm 3 mps 753 mmHg 66%
    15:00 +20°C° 0 mm 3 mps 753 mmHg 62%
    16:00 +21°C° 0 mm 3 mps 753 mmHg 57%
    17:00 +19°C° 0 mm 3 mps 754 mmHg 63%
    18:00 +18°C° 0 mm 3 mps 754 mmHg 70%
    19:00 +16°C° 0 mm 3 mps 754 mmHg 76%
    20:00 +16°C° 0 mm 3 mps 755 mmHg 78%
    21:00 +14°C° 0 mm 3 mps 755 mmHg 80%
    22:00 +14°C° 0 mm 3 mps 755 mmHg 82%
    23:00 +15°C° 0 mm 2 mps 756 mmHg 82%

    27 September, Friday

    Time Temperature Precipitation Wind Pressure Humidity
    00:00 +14°C° 0 mm 2 mps 756 mmHg 82%
    01:00 +14°C° 0 mm 2 mps 756 mmHg 82%
    02:00 +14°C° 0 mm 2 mps 756 mmHg 83%
    03:00 +14°C° 0 mm 2 mps 756 mmHg 84%
    04:00 +13°C° 0 mm 2 mps 756 mmHg 85%
    05:00 +14°C° 0 mm 1 mps 756 mmHg 83%
    06:00 +15°C° 0 mm 1 mps 756 mmHg 81%
    07:00 +15°C° 0 mm 1 mps 756 mmHg 79%
    08:00 +17°C° 0 mm 2 mps 756 mmHg 71%
    09:00 +19°C° 0 mm 2 mps 757 mmHg 63%
    10:00 +21°C° 0 mm 2 mps 757 mmHg 55%
    11:00 +23°C° 0 mm 2 mps 756 mmHg 51%
    12:00 +24°C° 0 mm 2 mps 756 mmHg 48%
    13:00 +25°C° 0 mm 2 mps 756 mmHg 44%
    14:00 +25°C° 0 mm 1 mps 755 mmHg 44%
    15:00 +25°C° 0 mm 1 mps 755 mmHg 45%
    16:00 +25°C° 0 mm 1 mps 755 mmHg 45%
    17:00 +23°C° 0 mm 1 mps 755 mmHg 50%
    18:00 +21°C° 0 mm 2 mps 755 mmHg 55%
    19:00 +19°C° 0 mm 2 mps 755 mmHg 60%
    20:00 +18°C° 0 mm 2 mps 755 mmHg 62%
    21:00 +18°C° 0 mm 2 mps 755 mmHg 64%
    22:00 +17°C° 0 mm 2 mps 755 mmHg 66%
    23:00 +17°C° 0 mm 2 mps 755 mmHg 67%

    28 September, Saturday

    Time Temperature Precipitation Wind Pressure Humidity
    00:00 +17°C° 0 mm 2 mps 755 mmHg 68%
    01:00 +16°C° 0 mm 2 mps 755 mmHg 69%
    02:00 +16°C° 0 mm 2 mps 755 mmHg 70%
    03:00 +16°C° 0 mm 2 mps 755 mmHg 70%
    04:00 +16°C° 0 mm 2 mps 755 mmHg 70%
    05:00 +16°C° 0 mm 1 mps 755 mmHg 69%
    06:00 +16°C° 0 mm 1 mps 755 mmHg 69%
    07:00 +18°C° 0 mm 1 mps 755 mmHg 68%
    08:00 +20°C° 0 mm 1 mps 755 mmHg 61%
    09:00 +21°C° 0 mm 2 mps 756 mmHg 55%
    10:00 +24°C° 0 mm 2 mps 756 mmHg 48%
    11:00 +25°C° 0 mm 2 mps 755 mmHg 45%
    12:00 +26°C° 0 mm 2 mps 755 mmHg 41%
    13:00 +27°C° 0 mm 2 mps 754 mmHg 38%
    14:00 +27°C° 0 mm 2 mps 754 mmHg 38%
    15:00 +27°C° 0 mm 2 mps 754 mmHg 38%
    16:00 +27°C° 0 mm 2 mps 754 mmHg 39%
    17:00 +25°C° 0 mm 1 mps 754 mmHg 44%
    18:00 +23°C° 0 mm 1 mps 754 mmHg 49%
    19:00 +21°C° 0 mm 1 mps 754 mmHg 54%
    20:00 +21°C° 0 mm 1 mps 754 mmHg 57%
    21:00 +20°C° 0 mm 1 mps 755 mmHg 60%
    22:00 +20°C° 0 mm 1 mps 755 mmHg 63%
    23:00 +18°C° 0 mm 2 mps 755 mmHg 65%

    29 September, Sunday

    Time Temperature Precipitation Wind Pressure Humidity
    00:00 +18°C° 0 mm 2 mps 755 mmHg 66%
    01:00 +18°C° 0 mm 2 mps 755 mmHg 68%
    02:00 +17°C° 0 mm 2 mps 755 mmHg 69%
    03:00 +17°C° 0 mm 2 mps 755 mmHg 70%
    04:00 +16°C° 0 mm 2 mps 755 mmHg 71%
    05:00 +16°C° 0 mm 2 mps 755 mmHg 71%
    06:00 +17°C° 0 mm 2 mps 755 mmHg 70%
    07:00 +17°C° 0 mm 2 mps 755 mmHg 70%
    08:00 +19°C° 0 mm 2 mps 755 mmHg 63%
    09:00 +22°C° 0 mm 1 mps 755 mmHg 56%
    10:00 +24°C° 0 mm 1 mps 755 mmHg 49%
    11:00 +25°C° 0 mm 1 mps 755 mmHg 47%
    12:00 +26°C° 0 mm 2 mps 754 mmHg 45%
    13:00 +27°C° 0 mm 2 mps 754 mmHg 43%
    14:00 +27°C° 0 mm 2 mps 753 mmHg 44%
    15:00 +26°C° 0 mm 2 mps 753 mmHg 45%
    16:00 +26°C° 0 mm 2 mps 752 mmHg 46%
    17:00 +25°C° 0 mm 2 mps 752 mmHg 51%
    18:00 +23°C° 0 mm 2 mps 752 mmHg 56%
    19:00 +22°C° 0 mm 1 mps 752 mmHg 61%
    20:00 +21°C° 0 mm 1 mps 752 mmHg 63%
    21:00 +21°C° 0 mm 1 mps 752 mmHg 65%
    22:00 +20°C° 0 mm 1 mps 752 mmHg 68%
    23:00 +20°C° 0 mm 1 mps 752 mmHg 69%
    Show more